Location: Sunny Point
(33.0946°N, 85.0574°W)
Time: 15:51:54
(UTC+00:00)

CUTE 1.7 + AOD 2 - Visible Passes

Search period start: 12 July 2024 00:00
Search period end: 22 July 2024 00:00
Orbit: 569 x 582 km, 97.8° (Epoch: 12 July)

Date Brightness Start Highest point End Pass type
(mag) Time Alt. Az. Time Alt. Az. Time Alt. Az.
12 Jul ? 09:00:36 10° NNE 09:04:40 65° E 09:07:17 21° S visible
13 Jul ? 09:04:14 10° NNE 09:08:21 73° ESE 09:10:56 22° S visible
14 Jul ? 09:07:52 10° NNE 09:11:59 81° ESE 09:14:35 22° S visible
15 Jul ? 09:11:31 10° NNE 09:15:37 90° NW 09:18:13 22° SSW visible
16 Jul ? 09:15:09 10° N 09:19:15 81° WNW 09:21:51 22° SSW visible
17 Jul ? 09:18:47 10° N 09:22:52 72° WNW 09:25:28 21° SSW visible
18 Jul ? 09:22:25 10° N 09:26:29 65° WNW 09:29:04 21° SSW visible
19 Jul ? 09:26:03 10° N 09:30:04 58° WNW 09:32:39 21° SSW visible
20 Jul ? 09:29:40 10° N 09:33:39 51° WNW 09:36:14 20° SW visible
21 Jul ? 09:33:18 10° N 09:37:13 46° WNW 09:39:49 19° SW visible
